Voltar ao catálogo

OBJECT J

AtivoSSO
NORAD 100137·UNKNOWN·🇨🇳 China

Lançado Jul 22, 2026 de Yellow Sea Launch Area

Loading…

Próximas Passagens (próximas 24 horas)

TLE

AtualizadoSource: Space-Track

Época: Sep 14, 2026, 04:07 UTC

1 A0137U 26168J   26257.17162551  .00005740  00000-0  35302-3 0  9996
2 A0137  97.5365 338.0310 0021550 148.2742 211.9791 15.10233380  8146

Acompanhe OBJECT J em tempo real com AllMySat

Download on the App Store